[[{"header":{"parameterUnit":"m.s-1","parameterCategory":1,"la1":30.2991,"la2":30.254,"lo1":-89.0895,"lo2":-89.0444,"dy":0.0017,"dx":0.0017,"nx":28,"ny":28,"refTime":"2025-09-16T21:00:00:Z","depth":0,"parameterNumber":2,"parameterNumberName":"U-component_of_WINDS"},"data":[0,0,0,0,0,0,0,0,0,0,0,0,0,0,0,0,0,0,0,0,0,0,0,0,0,0,0,0,0,0,0,0,0,0,0,0,0,0,0,0,0,0,0,0,0,0,0,0,0,0,0,0,0,0,0,0,0,0,-0.7405,-0.7406,0,-0.753,-0.7532,-0.7533,-0.757,-0.757,-0.7569,-0.7568,-0.77,-0.7704,-0.7708,0,0,0,0,0,0,0,0,0,0,0,0,0,-0.72,-0.7203,-0.7405,-0.7406,-0.7408,-0.753,-0.7532,-0.7534,-0.757,-0.757,-0.7569,-0.7568,-0.7698,-0.7703,-0.7708,0,0,0,0,0,0,0,0,0,0,0,0,0,-0.7303,-0.7204,-0.7404,-0.7441,-0.7445,-0.753,-0.7532,-0.7534,-0.7571,-0.757,-0.7569,-0.7568,-0.7697,-0.7703,-0.7709,-0.7767,0,0,-0.7728,-0.773,0,0,0,0,0,0,0,0,-0.7297,-0.7311,-0.7434,-0.7438,-0.7444,-0.7534,-0.7508,-0.7612,-0.7571,-0.7523,-0.7568,-0.7567,-0.7645,-0.7656,-0.7682,-0.7773,-0.7779,-0.7728,-0.7732,-0.7735,-0.7736,0,0,0,0,0,0,0,-0.729,-0.7306,-0.7455,-0.7436,-0.7442,-0.7452,-0.7466,-0.7528,-0.7588,-0.7527,-0.753,-0.7544,-0.7648,-0.7676,-0.7685,-0.7781,-0.7728,-0.7734,-0.7737,-0.774,-0.7928,-0.793,0,0,0,0,0,0,-0.7276,-0.7299,-0.7451,-0.7458,-0.7367,-0.7456,-0.7472,-0.7506,-0.7588,-0.7599,-0.7545,-0.7546,-0.7666,-0.7678,-0.769,-0.7765,-0.7735,-0.7741,-0.7744,-0.7927,-0.7929,-0.793,0,0,0,0,0,0,-0.7272,-0.729,-0.7445,-0.738,-0.74,-0.7461,-0.7499,-0.7509,-0.7536,-0.7601,-0.7613,-0.7562,-0.7665,-0.7681,-0.7748,-0.777,-0.7743,-0.7749,-0.7926,-0.7928,-0.7929,-0.7914,0,0,0,0,0,0,-0.7266,-0.7288,-0.731,-0.738,-0.7404,-0.75,-0.75,-0.7512,-0.7547,-0.7549,-0.762,-0.7631,-0.7666,-0.7738,-0.7754,-0.7778,-0.7754,-0.7924,-0.7927,-0.7929,-0.7913,-0.7915,-0.7917,0,0,0,0,0,-0.7258,-0.73,-0.731,-0.7329,-0.7432,-0.7501,-0.7515,-0.7553,-0.7548,-0.7572,-0.7613,-0.7629,-0.7764,-0.7745,-0.7763,-0.7789,-0.7923,-0.7926,-0.7929,-0.7912,-0.7915,-0.7917,0,0,0,0,0,0,-0.7232,-0.731,-0.7322,-0.7388,-0.7438,-0.7507,-0.7538,-0.7555,-0.7608,-0.7607,-0.7653,-0.7669,-0.7733,-0.7767,-0.7744,-0.785,-0.7844,-0.7851,-0.7825,-0.7829,-0.7831,-0.7822,-0.7759,0,0,0,0,0,-0.7233,-0.7282,-0.7348,-0.74,-0.7425,-0.7477,-0.7508,-0.7533,-0.7587,-0.7608,-0.7655,-0.7707,-0.7762,-0.7797,-0.7851,-0.7918,-0.7935,-0.7945,-0.7947,-0.7948,-0.7954,-0.7993,-0.7999,-0.794,-0.794,-0.794,0,0,-0.7238,-0.7287,-0.7315,-0.7396,-0.7438,-0.7488,-0.7494,-0.7547,-0.7586,-0.7617,-0.7683,-0.7719,-0.778,-0.7848,-0.788,-0.7879,-0.7974,-0.7952,-0.7952,-0.7958,-0.7997,-0.8002,-0.8007,-0.7942,-0.7941,-0.7941,0,0,-0.7272,-0.7313,-0.7361,-0.7403,-0.7465,-0.75,-0.7511,-0.7579,-0.7604,-0.767,-0.7695,-0.7742,-0.7834,-0.7878,-0.7912,-0.7963,-0.798,-0.7979,-0.7991,-0.8029,-0.8034,-0.8038,-0.8058,-0.8064,-0.7984,-0.7984,-0.7984,0,-0.727,-0.7346,-0.7384,-0.7436,-0.7472,-0.7502,-0.7552,-0.759,-0.7667,-0.7692,-0.7689,-0.7807,-0.785,-0.7929,-0.7941,-0.7967,-0.7983,-0.7971,-0.8029,-0.8034,-0.8039,-0.8058,-0.8066,-0.7984,-0.7984,-0.7984,-0.7984,0,-0.7341,-0.7394,-0.7425,-0.7498,-0.7538,-0.7588,-0.7636,-0.7671,-0.7693,-0.7728,-0.7796,-0.7849,-0.7915,-0.7935,-0.7957,-0.8018,-0.8015,-0.802,-0.8015,-0.8044,-0.8063,-0.807,-0.7983,-0.7983,-0.7983,-0.7983,0,0,-0.7363,-0.7456,-0.7467,-0.7501,-0.7572,-0.7614,-0.7667,-0.773,-0.7761,-0.7813,-0.7859,-0.7937,-0.7943,-0.7981,-0.8008,-0.8041,-0.808,-0.8043,-0.8045,-0.8049,-0.8152,-0.8149,-0.8157,-0.8091,-0.8093,-0.8094,-0.8148,0,-0.7407,-0.7501,-0.7537,-0.7615,-0.7665,-0.7694,-0.774,-0.7789,-0.7824,-0.7872,-0.7911,-0.7966,-0.7968,-0.7992,-0.8026,-0.8068,-0.8102,-0.8065,-0.8137,-0.8139,-0.8122,-0.8167,-0.8163,-0.8211,-0.8155,-0.8157,-0.8157,0,-0.7471,-0.7523,-0.7605,-0.7671,-0.7694,-0.7734,-0.7796,-0.7841,-0.7898,-0.7921,-0.7964,-0.799,-0.8047,-0.8038,-0.8119,-0.8093,-0.8125,-0.815,-0.8153,-0.8163,-0.8151,-0.8179,-0.8227,-0.8235,-0.8169,-0.8168,-0.8168,0,-0.748,-0.7571,-0.7633,-0.7661,-0.7738,-0.7767,-0.7801,-0.7857,-0.7893,-0.7947,-0.7971,-0.8031,-0.8065,-0.8112,-0.8153,-0.8142,-0.8231,-0.8225,-0.8253,-0.8252,-0.8272,-0.827,-0.8327,-0.8289,-0.8289,-0.8289,-0.8289,0,-0.7527,-0.7577,-0.7638,-0.7676,-0.7733,-0.7774,-0.783,-0.7866,-0.7916,-0.7962,-0.7991,-0.8034,-0.8085,-0.8135,-0.8168,-0.8231,-0.8246,-0.8267,-0.8276,-0.8266,-0.8263,-0.8288,-0.8287,-0.8291,-0.8291,-0.829,-0.829,0,-0.7548,-0.759,-0.766,-0.7727,-0.7746,-0.7785,-0.7844,-0.7882,-0.7918,-0.7976,-0.7993,-0.8049,-0.811,-0.8155,-0.8234,-0.8256,-0.8324,-0.8332,-0.8305,-0.8309,-0.8336,-0.8333,-0.8412,-0.8426,-0.8377,-0.8377,-0.8377,0,-0.7575,-0.7614,-0.7686,-0.7719,-0.7752,-0.7804,-0.7841,-0.7884,-0.7922,-0.799,-0.8021,-0.8083,-0.8135,-0.8231,-0.828,-0.8341,-0.8352,-0.8375,-0.8361,-0.835,-0.8354,-0.8352,-0.8357,-0.8378,-0.8378,-0.8378,-0.8378,0,-0.762,-0.764,-0.7691,-0.775,-0.7793,-0.7842,-0.7892,-0.7917,-0.7969,-0.801,-0.8072,-0.8113,-0.8193,-0.8255,-0.8321,-0.8358,-0.8378,-0.8382,-0.8392,-0.8383,-0.8367,-0.8378,-0.8312,-0.8381,-0.838,-0.838,-0.838,-0.838,-0.7647,-0.7683,-0.774,-0.7796,-0.7838,-0.7884,-0.7924,-0.7964,-0.8016,-0.8084,-0.8106,-0.8171,-0.8228,-0.8318,-0.8355,-0.8407,-0.8408,-0.8422,-0.8426,-0.8429,-0.8429,-0.8357,-0.8419,-0.8419,-0.8419,-0.8419,-0.8419,0,-0.7695,-0.7733,-0.7784,-0.7852,-0.7897,-0.791,-0.7966,-0.8003,-0.8059,-0.811,-0.8161,-0.8233,-0.8294,-0.8347,-0.8411,-0.8442,-0.8453,-0.8458,-0.8457,-0.8465,-0.8425,-0.841,-0.8448,-0.8448,-0.8448,-0.8448,-0.8448,-0.8448,-0.7726,-0.7788,-0.7814,-0.7898,-0.7936,-0.7998,-0.8029,-0.8072,-0.8113,-0.8192,-0.8242,-0.8276,-0.8329,-0.8397,-0.8453,-0.8468,-0.8491,-0.8493,-0.851,-0.8471,-0.8468,-0.8465,-0.8452,-0.8497,-0.8498,-0.8547,-0.8547,-0.8548]},{"header":{"parameterUnit":"m.s-1","parameterCategory":1,"la1":30.2991,"la2":30.254,"lo1":-89.0895,"lo2":-89.0444,"dy":0.0017,"dx":0.0017,"nx":28,"ny":28,"refTime":"2025-09-16T21:00:00:Z","depth":0,"parameterNumber":3,"parameterNumberName":"V-component_of_WINDS"},"data":[0,0,0,0,0,0,0,0,0,0,0,0,0,0,0,0,0,0,0,0,0,0,0,0,0,0,0,0,0,0,0,0,0,0,0,0,0,0,0,0,0,0,0,0,0,0,0,0,0,0,0,0,0,0,0,0,0,0,3.3075,3.3075,0,3.3133,3.3134,3.3134,3.3154,3.3154,3.3154,3.3154,3.3208,3.3209,3.3211,0,0,0,0,0,0,0,0,0,0,0,0,0,3.2975,3.2977,3.3075,3.3075,3.3076,3.3133,3.3134,3.3135,3.3154,3.3154,3.3154,3.3154,3.3207,3.3209,3.3211,0,0,0,0,0,0,0,0,0,0,0,0,0,3.3024,3.2977,3.3074,3.3093,3.3095,3.3133,3.3134,3.3135,3.3154,3.3154,3.3154,3.3154,3.3207,3.3209,3.3211,3.3233,0,0,3.3219,3.322,0,0,0,0,0,0,0,0,3.3021,3.3028,3.309,3.3092,3.3094,3.3136,3.3118,3.3168,3.3155,3.3132,3.3154,3.3153,3.3184,3.3188,3.32,3.3236,3.3238,3.3219,3.3221,3.3222,3.3222,0,0,0,0,0,0,0,3.3018,3.3025,3.3098,3.309,3.3093,3.3097,3.3103,3.3128,3.3159,3.3134,3.3135,3.3142,3.3185,3.3197,3.3201,3.3239,3.3219,3.3221,3.3223,3.3224,3.3295,3.3296,0,0,0,0,0,0,3.3012,3.3022,3.3096,3.3099,3.3056,3.3099,3.3106,3.3123,3.3159,3.3164,3.3143,3.3143,3.3193,3.3198,3.3203,3.3231,3.3222,3.3224,3.3225,3.3295,3.3295,3.3296,0,0,0,0,0,0,3.301,3.3018,3.3093,3.3061,3.3071,3.3101,3.312,3.3124,3.3137,3.3165,3.317,3.315,3.3193,3.32,3.3226,3.3233,3.3225,3.3227,3.3294,3.3295,3.3296,3.3287,0,0,0,0,0,0,3.3007,3.3018,3.3027,3.3061,3.3073,3.3117,3.312,3.3126,3.3142,3.3143,3.3173,3.3178,3.3193,3.3222,3.3228,3.3236,3.3229,3.3294,3.3295,3.3295,3.3286,3.3287,3.3287,0,0,0,0,0,3.3003,3.3021,3.3028,3.3036,3.3086,3.3117,3.3123,3.3142,3.3142,3.3151,3.317,3.3177,3.3231,3.3225,3.3232,3.3241,3.3293,3.3294,3.3295,3.3286,3.3287,3.3287,0,0,0,0,0,0,3.2984,3.3026,3.3034,3.3063,3.3087,3.3121,3.3133,3.3142,3.3165,3.3165,3.3186,3.3192,3.3217,3.3231,3.3223,3.3263,3.3263,3.3265,3.3253,3.3254,3.3254,3.325,3.3231,0,0,0,0,0,3.2984,3.3008,3.3042,3.3065,3.3077,3.3103,3.3117,3.313,3.3154,3.3164,3.3184,3.3206,3.3228,3.3242,3.3263,3.3289,3.3295,3.3298,3.3299,3.3299,3.33,3.3315,3.3316,3.3299,3.3299,3.3299,0,0,3.2983,3.3009,3.3022,3.3062,3.3082,3.3104,3.3111,3.3134,3.3151,3.3166,3.3193,3.3209,3.3234,3.3261,3.3273,3.3273,3.3307,3.33,3.33,3.3302,3.3316,3.3317,3.3319,3.33,3.33,3.3299,0,0,3.2993,3.3015,3.3037,3.3057,3.3088,3.3105,3.311,3.3143,3.3154,3.3182,3.3194,3.3213,3.3251,3.3269,3.3283,3.33,3.3307,3.3306,3.3308,3.3322,3.3323,3.3325,3.3331,3.3333,3.3308,3.3308,3.3308,0,3.2987,3.3023,3.3046,3.307,3.3086,3.3104,3.3125,3.3143,3.3178,3.3189,3.3189,3.3237,3.3255,3.3286,3.329,3.3301,3.3307,3.3303,3.3322,3.3323,3.3325,3.3331,3.3333,3.3308,3.3308,3.3308,3.3308,0,3.3015,3.304,3.3053,3.309,3.3108,3.313,3.3154,3.317,3.3181,3.3198,3.3225,3.3248,3.3275,3.3283,3.3294,3.3315,3.3315,3.3318,3.3318,3.3326,3.3332,3.3334,3.3307,3.3307,3.3308,3.3308,0,0,3.3013,3.3063,3.3067,3.3084,3.312,3.3139,3.3161,3.319,3.3202,3.3226,3.3245,3.3277,3.328,3.3296,3.3309,3.3321,3.3333,3.3323,3.3324,3.3324,3.3357,3.3354,3.3357,3.3338,3.3339,3.3339,3.3355,0,3.3027,3.3071,3.3092,3.3125,3.3148,3.3166,3.3185,3.3208,3.3224,3.3245,3.3262,3.3285,3.3288,3.3298,3.3311,3.3329,3.334,3.3328,3.3354,3.3355,3.3347,3.336,3.3357,3.3371,3.3358,3.3358,3.3358,0,3.305,3.3076,3.3112,3.3146,3.3156,3.3174,3.3201,3.3221,3.3247,3.3258,3.3277,3.3289,3.3312,3.331,3.3342,3.3333,3.3345,3.3355,3.3356,3.3359,3.3357,3.3362,3.3376,3.3378,3.3362,3.3362,3.3362,0,3.3045,3.3089,3.3117,3.313,3.317,3.3182,3.3199,3.3225,3.324,3.3264,3.3274,3.33,3.3313,3.3332,3.335,3.3348,3.3379,3.3379,3.3388,3.3387,3.3393,3.3393,3.3408,3.3402,3.3402,3.3402,3.3402,0,3.3058,3.308,3.3115,3.3132,3.3156,3.318,3.3202,3.322,3.3243,3.3262,3.3278,3.3296,3.3319,3.3339,3.3353,3.3377,3.3383,3.3391,3.3395,3.339,3.3389,3.3397,3.3397,3.3402,3.3402,3.3402,3.3402,0,3.3057,3.3082,3.3113,3.3149,3.3158,3.3174,3.3204,3.322,3.3238,3.3262,3.3269,3.3296,3.3321,3.3341,3.3372,3.3382,3.3406,3.341,3.3398,3.34,3.3407,3.3406,3.3429,3.3433,3.3424,3.3424,3.3424,0,3.3064,3.3081,3.3119,3.3135,3.3152,3.3176,3.3193,3.3216,3.3233,3.3264,3.3276,3.3302,3.3325,3.3362,3.3383,3.3407,3.3412,3.3418,3.3416,3.341,3.3412,3.3411,3.3412,3.3418,3.3418,3.3418,3.3418,0,3.3073,3.3085,3.311,3.314,3.316,3.3184,3.3207,3.3218,3.3246,3.3263,3.329,3.3307,3.334,3.3366,3.3392,3.3407,3.3417,3.3419,3.3422,3.3417,3.3409,3.3414,3.3398,3.3418,3.3418,3.3418,3.3418,3.3418,3.3076,3.3092,3.3123,3.315,3.3171,3.3193,3.321,3.3231,3.3254,3.3284,3.3296,3.3323,3.3348,3.3385,3.34,3.342,3.3422,3.3426,3.3427,3.3428,3.3427,3.3407,3.3425,3.3425,3.3425,3.3425,3.3425,0,3.3086,3.3107,3.3132,3.3166,3.3187,3.3197,3.3224,3.324,3.3264,3.3288,3.331,3.334,3.3365,3.3388,3.3414,3.3425,3.343,3.3431,3.343,3.3434,3.3425,3.3419,3.3427,3.3427,3.3427,3.3427,3.3427,3.3427,3.3094,3.3123,3.3138,3.3176,3.3196,3.3224,3.3239,3.3259,3.3278,3.3311,3.3333,3.3349,3.3372,3.34,3.3422,3.3428,3.3437,3.3436,3.3444,3.3435,3.3434,3.3434,3.3429,3.3438,3.3438,3.3451,3.3451,3.3451]}]]